Location: Eckley
(40.9930°N, 75.8630°W)
Time: 17:12:23
(UTC-04:00)

Daily predictions for brighter satellites

Satellite Brightness Start Highest point End
(mag) Time Altitude Azimuth Time Altitude Azimuth Time Altitude Azimuth
OAO 2 Rocket 4.3 21:03:20 10° SW 21:07:56 30° SSE 21:12:34 10° ESE
Cosmos 1300 4.2 21:08:06 10° NNE 21:11:10 22° ENE 21:14:12 10° SE
Cosmos 1500 Rocket 3.9 21:06:56 10° SSW 21:11:18 71° W 21:15:43 10° N
Envisat 3.4 21:06:42 10° SE 21:11:34 48° ENE 21:16:27 10° N
ERBS 4.2 21:10:27 10° SSE 21:12:07 13° ESE 21:13:49 10° E
Tiangong 1 1.2 21:11:42 10° SW 21:14:44 51° SSE 21:17:45 10° E
NOSS 3-1 (C) 3.5 21:11:20 10° SSW 21:16:57 52° ESE 21:23:08 10° NE
Cosmos 2333 Rocket 3.8 21:15:52 10° N 21:20:17 22° NE 21:24:41 10° ESE
Cosmos 2151 2.9 21:18:22 10° S 21:22:31 67° E 21:26:42 10° NNE
Delta 2 Rocket 3.8 21:21:43 10° WSW 21:25:11 35° S 21:28:16 11° ESE
SL-23 DEB 4.1 21:20:24 10° NW 21:26:06 89° SW 21:29:29 11° SE
ARGOS 4.4 21:22:20 10° ESE 21:26:46 27° ENE 21:31:11 10° N
Cosmos 2058 3.3 21:23:16 10° SSE 21:27:08 43° E 21:31:02 10° NNE
Cosmos 2112 Rocket 4.0 21:22:40 10° NNW 21:27:57 85° ENE 21:33:13 10° SSE
Cosmos 2297 Rocket 4.0 21:26:33 10° ESE 21:28:47 12° E 21:31:02 10° ENE
Cosmos 1937 Rocket 4.5 21:25:04 10° SSE 21:29:25 27° E 21:33:44 10° NE
Cosmos 2219 Rocket 3.2 21:27:24 10° N 21:32:26 33° ENE 21:37:10 11° ESE
COSMOS 2428 2.9 21:26:56 10° NNW 21:32:36 64° ENE 21:37:58 11° SE
Nimbus 7 Rocket 4.4 21:28:02 10° NNE 21:33:53 71° ESE 21:39:44 10° S
Cosmos 1437 Rocket 4.3 21:33:15 10° NNW 21:36:46 35° W 21:40:17 10° SSW
deb Chang Zheng 4 3.7 21:32:51 10° N 21:37:12 79° WNW 21:41:32 10° SSW
Cosmos 2298 Rocket 4.1 21:35:23 10° S 21:40:35 57° ESE 21:45:48 10° NNE
Cosmos 304 Rocket 4.4 21:36:36 10° NNW 21:41:18 54° WSW 21:45:58 10° S
Cosmos 1726 2.8 21:37:46 10° N 21:41:20 38° ENE 21:44:08 15° SE
Sich 1 3.5 21:40:30 10° SSE 21:44:40 42° E 21:48:48 10° NNE
PSLV R/B 3.1 21:44:56 14° SSE 21:47:27 72° ENE 21:50:30 10° N
Cosmos 1939 Rocket 3.5 21:44:33 10° S 21:48:24 54° W 21:52:12 10° NNW
Cosmos 1151 Rocket 4.1 21:44:34 10° NNW 21:48:41 44° W 21:52:48 10° SSW
CZ-4B R/B 3.9 21:45:09 10° NNE 21:50:13 47° E 21:55:10 10° S
Cosmos 1633 Rocket 3.4 21:46:59 11° SSE 21:51:03 46° E 21:55:15 10° NNE
Cosmos 2242 Rocket 4.3 21:47:09 10° N 21:51:22 40° ENE 21:54:27 17° SE
Cosmos 2237 4.3 21:48:22 10° NNW 21:54:08 82° WSW 21:59:09 14° SSE
Meteor 1-4 Rocket 3.3 21:51:12 10° N 21:54:44 39° ENE 21:56:51 20° SE
SPOT 5 2.9 21:51:24 11° SSE 21:55:53 82° WSW 22:00:48 10° NNW
USA 245 2.8 21:59:33 28° ESE 22:00:18 36° ENE 22:02:25 10° N
Cosmos 2219 3.9 21:56:55 10° SW 22:02:35 59° WNW 22:08:16 10° NNE
Cosmos 292 Rocket 3.9 22:00:11 10° NNW 22:04:55 63° ENE 22:08:03 21° SE
Cosmos 2237 Rocket 2.9 22:01:42 10° N 22:07:06 41° ENE 22:10:50 19° ESE
MetOp-B 4.2 22:03:01 13° SSE 22:07:49 83° WSW 22:13:12 10° NNW
Cosmos 1805 Rocket 4.0 22:03:36 10° SSW 22:08:01 65° W 22:12:27 10° N
H-2A R/B 3.2 22:05:52 17° ESE 22:09:09 32° ENE 22:13:57 10° N
Cosmos 2333 4.3 22:04:54 10° NNW 22:10:39 81° WSW 22:14:59 18° SSE
Cosmos 2082 4.1 22:07:50 12° S 22:12:45 43° ESE 22:18:08 10° NE
DELTA 2 R/B(2) 3.2 22:12:38 10° W 22:14:22 64° S 22:14:49 47° ESE
Cosmos 1271 Rocket 2.7 22:11:06 10° N 22:14:57 67° E 22:17:01 26° SSE
Cosmos 1898 Rocket 3.6 22:10:14 10° SSW 22:15:24 81° WNW 22:20:39 10° NNE
Cosmos 2360 Rocket 3.9 22:11:54 10° NW 22:16:32 27° WSW 22:21:10 10° SSW
Landsat 7 4.4 22:14:43 22° SE 22:17:19 42° ENE 22:21:49 10° N
Cosmos 220 Rocket 3.9 22:14:02 10° SSW 22:18:25 77° ESE 22:22:51 10° NNE
CZ-4C R/B 3.8 22:18:52 28° ESE 22:20:04 37° ENE 22:23:19 10° N
Iridium 2 3.9 22:19:29 28° SSE 22:21:16 54° E 22:25:03 10° NNE
SPOT 1/Viking Rocket 3.5 22:17:51 19° SSE 22:21:35 87° WSW 22:26:47 10° NNW
NOAA 11 4.2 22:18:01 21° SSE 22:21:45 76° ENE 22:27:13 10° N
NOSS 3-1 (A) 3.7 22:16:08 10° SW 22:22:01 73° NW 22:28:34 10° NNE
Cosmos 1626 2.9 22:21:48 29° ESE 22:22:45 34° E 22:26:11 10° NNE
Cosmos 1346 3.6 22:22:51 36° ESE 22:23:09 37° E 22:25:59 10° NNE
H-2A R/B 4.2 22:20:57 10° SSW 22:24:35 24° W 22:28:15 10° NW
Cosmos 1703 3.1 22:23:37 22° S 22:26:05 81° E 22:30:00 10° N
Cosmos 1707 Rocket 4.5 22:22:59 10° NNW 22:27:10 45° W 22:30:45 13° SSW
SL-14 R/B 4.1 22:23:23 10° SSW 22:27:15 51° W 22:31:11 10° N
YAOGAN 6 3.4 22:27:34 19° SSW 22:29:50 46° W 22:33:19 10° NNW
OTV 4 1.9 22:28:05 10° SW 22:29:39 24° SSW 22:29:39 24° SSW
Cosmos 1666 Rocket 4.4 22:26:42 10° SSW 22:30:57 49° W 22:35:17 10° N
Cosmos 1241 Rocket 4.3 22:25:34 10° SSW 22:31:42 72° ESE 22:37:56 10° NE
Terra 2.4 22:31:05 27° ESE 22:33:11 43° ENE 22:37:41 10° N
SL-08 RB Rocket 3.6 22:32:55 28° SSE 22:35:17 89° W 22:39:49 10° NNW
Nadezhda 1 Rocket 3.9 22:37:44 10° N 22:43:52 80° E 22:47:24 27° SSE
ATLAS 2AS CENTAUR R/B 2.9 22:36:47 10° SSW 22:44:09 68° ESE 22:52:07 10° NE
Spot 4 4.5 22:42:22 29° ESE 22:44:15 43° ENE 22:48:51 10° N
Cosmos 1470 Rocket 3.4 22:42:21 28° S 22:44:38 90° SSE 22:48:59 10° N
Cosmos 2227 Rocket 2.1 22:39:41 10° SSW 22:45:20 84° ESE 22:51:02 10° NNE
Cosmos 1933 Rocket 3.5 22:43:16 27° S 22:45:38 88° ESE 22:50:08 10° N
ERBS 3.0 22:45:08 10° WSW 22:48:35 57° NW 22:52:01 10° NE
NOSS 0 Rocket 4.0 22:44:01 10° NNW 22:50:10 72° WSW 22:53:27 29° S
SAR-Lupe-2 4.0 22:49:41 42° E 22:50:13 46° ENE 22:53:40 10° N
Tiangong 1 1.4 22:48:14 10° W 22:51:19 62° N 22:52:17 37° ENE
OAO 2 Rocket 3.7 22:47:15 10° WSW 22:52:18 44° S 22:53:39 37° SE
ATLAS 3B R/B 3.0 22:48:44 10° NNW 22:55:40 57° NE 22:59:21 27° ESE
Cosmos 1745 Rocket 4.2 22:52:10 15° SSW 22:57:26 68° W 23:03:36 10° N
SL-16 R/B 2.7 22:56:35 10° NNW 23:02:07 50° ENE 23:04:25 32° ESE
Lacrosse 4 Rocket 2.2 22:58:11 10° NNW 23:02:27 44° ENE 23:03:42 35° E
DMSP B5D2-2 4.0 22:59:18 10° NNE 23:04:31 77° ESE 23:06:47 35° S
Cosmos 2333 Rocket 2.5 22:59:18 10° NNW 23:04:59 61° WSW 23:07:32 32° S
Cosmos 1709 Rocket 4.0 23:02:51 34° SSE 23:05:28 62° E 23:11:29 10° NNE
BREEZE-M TANK 4.2 22:43:27 10° WSW 23:06:16 85° NNW 23:10:43 10° ENE
ARGOS 4.1 23:03:31 20° SSW 23:06:46 41° W 23:11:51 10° NNW
Cosmos 468 4.5 23:01:26 10° NNW 23:06:48 78° ENE 23:08:38 42° SSE
Cosmos 2221 Rocket 4.1 23:04:09 10° N 23:08:32 45° ENE 23:09:20 41° ESE
Cosmos 1455 2.6 23:05:32 10° NNW 23:09:16 56° W 23:10:08 44° SW
Cosmos 2297 Rocket 2.2 23:07:58 20° SSW 23:12:00 85° WNW 23:17:41 10° NNE
COS B Rocket 4.1 23:10:48 10° NNE 23:14:32 37° E 23:14:33 37° E
Cosmos 1933 3.4 23:11:02 10° N 23:15:04 61° E 23:15:26 57° ESE
COSMOS 2455 2.9 23:09:34 10° NNW 23:15:37 74° ENE 23:17:55 40° SE
Cosmos 2219 Rocket 3.2 23:11:18 10° NW 23:16:22 36° WSW 23:18:54 24° SSW
NOSS 2-3 (E) 4.0 23:18:12 49° SE 23:18:50 52° ESE 23:24:10 10° NE
CARTOSAT-1 4.2 23:25:07 39° SW 23:26:08 48° W 23:30:20 10° NNW
Cosmos 2181 Rocket 4.0 23:31:04 10° N 23:37:30 87° W 23:39:48 43° S
Cosmos 2251 Rocket 4.5 23:32:47 10° N 23:37:43 37° ENE 23:39:06 31° E
CZ-4C R/B 4.0 23:36:40 10° NNW 23:43:00 35° NE 23:48:28 15° ESE
H-2A R/B 4.3 23:39:39 10° NE 23:42:10 21° ENE 23:42:10 21° ENE
SeaSat 1 3.3 23:43:30 34° E 23:44:50 41° ENE 23:49:28 10° NNW
Cosmos 2184 Rocket 4.2 23:43:46 45° SE 23:45:12 54° E 23:51:11 10° NNE
Cosmos 1269 Rocket 4.3 23:40:08 10° NNW 23:45:22 59° WSW 23:46:29 48° SSW
NOSS 2-3 (C) 3.8 23:44:46 50° SSW 23:46:08 88° SE 23:51:48 10° NE
H-2A R/B 3.3 23:46:30 26° SW 23:48:28 33° W 23:53:23 10° NNW
ASTEX 1 4.4 23:46:27 10° NNE 23:50:44 31° E 23:50:44 31° E
Cosmos 2237 Rocket 3.5 23:46:08 10° NW 23:50:57 29° WSW 23:52:39 24° SW
Meteor 1-26 Rocket 4.1 23:46:17 10° N 23:51:57 89° ENE 23:53:14 56° S
FALCON 9 R/B 3.2 23:33:07 10° W 23:52:04 54° SSW 23:54:02 43° SSE
Cosmos 1733 Rocket 4.3 23:53:33 31° ENE 23:53:33 31° ENE 23:57:01 10° NNE
Cosmos 1869 Rocket 3.8 23:53:42 59° WSW 23:54:15 65° W 23:58:43 10° N
